2022/12/21 00:00:00,30.2,-4.6
2022/12/21 00:10:00,30.2,-4.9
2022/12/21 00:20:00,30.1,-4.6
2022/12/21 00:30:00,30.1,-4.7
2022/12/21 00:40:00,30.1,-4.5
2022/12/21 00:50:00,30.1,-4.9
2022/12/21 01:00:00,30.0,-4.7
2022/12/21 01:10:00,30.0,-4.8
2022/12/21 01:20:00,29.9,-4.9
2022/12/21 01:30:00,29.9,-4.9
2022/12/21 01:40:00,29.8,-4.6
2022/12/21 01:50:00,29.8,-4.7
2022/12/21 02:00:00,29.7,-4.3
2022/12/21 02:10:00,29.7,-4.3
2022/12/21 02:20:00,29.6,-3.9
2022/12/21 02:30:00,29.6,-4.0
2022/12/21 02:40:00,29.5,-3.8
2022/12/21 02:50:00,29.5,-3.5
2022/12/21 03:00:00,29.5,-3.5
2022/12/21 03:10:00,29.4,-3.4
2022/12/21 03:20:00,29.4,-3.5
2022/12/21 03:30:00,29.4,-3.8
2022/12/21 03:40:00,29.3,-3.4
2022/12/21 03:50:00,29.3,-3.6
2022/12/21 04:00:00,29.3,-3.9
2022/12/21 04:10:00,29.3,-3.4
2022/12/21 04:20:00,29.3,-3.9
2022/12/21 04:30:00,29.3,-3.6
2022/12/21 04:40:00,29.3,-3.8
2022/12/21 04:50:00,29.2,-3.5
2022/12/21 05:00:00,29.2,-3.7
2022/12/21 05:10:00,29.1,-3.5
2022/12/21 05:20:00,29.1,-3.5
2022/12/21 05:30:00,29.1,-3.8
2022/12/21 05:40:00,29.1,-3.7
2022/12/21 05:50:00,29.1,-4.0
2022/12/21 06:00:00,29.0,-3.9
2022/12/21 06:10:00,28.9,-3.8
2022/12/21 06:20:00,28.9,-4.0
2022/12/21 06:30:00,28.9,-3.9
2022/12/21 06:40:00,28.8,-4.3
2022/12/21 06:50:00,28.8,-4.3
2022/12/21 07:00:00,28.8,-3.9
2022/12/21 07:10:00,28.7,-3.9
2022/12/21 07:20:00,28.7,-4.1
2022/12/21 07:30:00,28.6,-4.0
2022/12/21 07:40:00,28.6,-3.7
2022/12/21 07:50:00,28.6,-3.9
2022/12/21 08:00:00,28.5,-3.8
2022/12/21 08:10:00,28.5,-3.6
2022/12/21 08:20:00,28.4,-3.5
2022/12/21 08:30:00,28.4,-3.5
2022/12/21 08:40:00,28.3,-2.7
2022/12/21 08:50:00,28.3,-2.4
2022/12/21 09:00:00,28.3,-1.9
2022/12/21 09:10:00,28.2,-1.8
2022/12/21 09:20:00,28.2,-1.7
2022/12/21 09:30:00,28.1,-1.3
2022/12/21 09:40:00,28.0,-0.5
2022/12/21 09:50:00,28.0,-0.3
2022/12/21 10:00:00,27.9,-0.4
2022/12/21 10:10:00,27.9,-0.6
2022/12/21 10:20:00,27.9, 0.0
2022/12/21 10:30:00,27.8, 0.1
2022/12/21 10:40:00,27.8, 0.1
2022/12/21 10:50:00,27.7, 0.5
2022/12/21 11:00:00,27.7, 0.5
2022/12/21 11:10:00,27.7, 0.4
2022/12/21 11:20:00,27.6, 0.0
2022/12/21 11:30:00,27.4, 0.9
2022/12/21 11:40:00,27.4, 1.1
2022/12/21 11:50:00,27.4, 1.2
2022/12/21 12:00:00,27.3, 0.9
2022/12/21 12:10:00,27.3, 1.2
2022/12/21 12:20:00,27.3, 1.2
2022/12/21 12:30:00,27.2, 0.8
2022/12/21 12:40:00,27.2, 1.3
2022/12/21 12:50:00,27.2, 0.8
2022/12/21 13:00:00,27.2, 1.1
2022/12/21 13:10:00,27.1, 1.1
2022/12/21 13:20:00,27.0, 1.3
2022/12/21 13:30:00,27.0, 1.6
2022/12/21 13:40:00,26.9, 1.2
2022/12/21 13:50:00,26.9, 1.1
2022/12/21 14:00:00,26.8, 1.3
2022/12/21 14:10:00,26.7, 1.4
2022/12/21 14:20:00,26.6, 1.4
2022/12/21 14:30:00,26.5, 1.3
2022/12/21 14:40:00,26.4, 1.4
2022/12/21 14:50:00,26.3, 1.0
2022/12/21 15:00:00,26.2, 1.3
2022/12/21 15:10:00,26.2, 0.8
2022/12/21 15:20:00,26.1, 1.0
2022/12/21 15:30:00,26.0, 0.7
2022/12/21 15:40:00,25.9, 0.7
2022/12/21 15:50:00,25.8, 0.7
2022/12/21 16:00:00,25.8, 0.6
2022/12/21 16:10:00,25.7, 0.6
2022/12/21 16:20:00,25.7, 0.5
2022/12/21 16:30:00,25.6, 0.4
2022/12/21 16:40:00,25.6, 0.4
2022/12/21 16:50:00,25.6, 0.4
2022/12/21 17:00:00,25.5, 0.6
2022/12/21 17:10:00,25.5, 0.5
2022/12/21 17:20:00,25.4, 0.5
2022/12/21 17:30:00,25.4, 0.7
2022/12/21 17:40:00,25.2, 0.6
2022/12/21 17:50:00,24.8, 0.5
2022/12/21 18:00:00,24.6, 0.6
2022/12/21 18:10:00,24.6, 0.5
2022/12/21 18:20:00,24.4, 0.5
2022/12/21 18:30:00,24.4, 0.7
2022/12/21 18:40:00,24.2, 0.6
2022/12/21 18:50:00,24.3, 0.5
2022/12/21 19:00:00,24.2, 0.2
2022/12/21 19:10:00,24.1, 0.7
2022/12/21 19:20:00,23.9, 0.5
2022/12/21 19:30:00,23.8, 0.9
2022/12/21 19:40:00,23.7, 0.7
2022/12/21 19:50:00,23.5, 1.2
2022/12/21 20:00:00,23.2, 0.9
2022/12/21 20:10:00,23.0, 0.7
2022/12/21 20:20:00,23.0, 0.9
2022/12/21 20:30:00,22.8, 1.4
2022/12/21 20:40:00,22.6, 0.8
2022/12/21 20:50:00,22.5, 0.8
2022/12/21 21:00:00,22.4, 0.7
2022/12/21 21:10:00,22.2, 0.6
2022/12/21 21:20:00,22.1, 0.6
2022/12/21 21:30:00,22.0, 0.7
2022/12/21 21:40:00,21.9, 0.7
2022/12/21 21:50:00,21.6, 0.5
2022/12/21 22:00:00,21.3, 0.4
2022/12/21 22:10:00,21.2, 0.5
2022/12/21 22:20:00,21.0, 0.6
2022/12/21 22:30:00,20.8, 0.7
2022/12/21 22:40:00,20.7, 0.4
2022/12/21 22:50:00,20.6, 0.3
2022/12/21 23:00:00,20.4, 0.7
2022/12/21 23:10:00,20.1, 0.6
2022/12/21 23:20:00,19.9, 0.6
2022/12/21 23:30:00,19.6, 0.4
2022/12/21 23:40:00,19.6, 0.8
2022/12/21 23:50:00,19.6, 0.8
